{"data":{"norad_id":65888,"epoch":"2026-09-20T04:34:40.297152Z","epoch_age_seconds":132914,"freshness":"FRESH","line1":"1 65888U 25224G   26263.19074418  .00021419  00000+0  64311-3 0  9997","line2":"2 65888  53.1589 187.1841 0001470 103.6234 256.4933 15.34407324 54610","mean_motion":15.34407324,"eccentricity":0.000147,"inclination_deg":53.1589,"raan_deg":187.1841,"arg_perigee_deg":103.6234,"mean_anomaly_deg":256.4933,"bstar":0.00064311,"rev_number":5461,"period_min":93.847310129237,"perigee_km":461.67587150687,"apogee_km":463.68707213759,"semimajor_km":6840.8184718222,"source":"CELESTRAK","updated_at":"2026-09-21T09:00:35.757447Z"}}